Torna al catalogo

STARLINK-31927

AttivoComunicazioniVLEO
NORAD 59837·PAYLOAD·🇺🇸 United States

Lanciato May 23, 2024 da Cape Canaveral Space Force Station

Loading…

Prossimi Passaggi (prossime 24 ore)

TLE

AggiornatoSource: CelesTrak SupGP

Epoca: Sep 14, 2026, 20:38 UTC

1 59837C 24097C   26257.86020833 -.00010928  00000+0 -39588-3 0  2570
2 59837  43.0002 286.0464 0001477 266.7071 241.8038 15.27579124    11

Traccia STARLINK-31927 in tempo reale con AllMySat

Download on the App Store